Weather History for Oak Ridge, TN

Change the Weather History Date:

Tuesday, March 19, 2013

  Actual Average (KTYS) Record (KTYS)
Temperature  
Mean Temperature 48 °F 51 °F  
Max Temperature 60 °F 62 °F 82 °F (1927)
Min Temperature 37 °F 40 °F 18 °F (1923)
Degree Days  
Heating Degree Days 17 14  
Month to date heating degree days 313  
Since 1 July heating degree days 3209  
Cooling Degree Days 0 0  
Month to date cooling degree days 0  
Year to date cooling degree days 0  
Moisture  
Dew Point 27 °F    
Average Humidity 49    
Maximum Humidity 94    
Minimum Humidity 13    
Precipitation  
Precipitation 0.00 in 0.14 in 1.40 in (1897)
Month to date precipitation 2.61  
Year to date precipitation 11.19  
Snow  
Snow 0.00 in 0.00 in - ()
Month to date snowfall 0.6  
Since 1 July snowfall 5.7  
Snow Depth -    
Sea Level Pressure  
Sea Level Pressure 30.06 in    
Wind  
Wind Speed 5 mph (WNW)    
Max Wind Speed 14 mph    
Max Gust Speed 22 mph    
Visibility 10 miles    
Events      
T = Trace of Precipitation, MM = Missing Value Source: NWS Daily Summary

Daily Weather History Graph

Daily Weather History Graph

Search for Another Location

Airport:

Trip Planner

Search our weather history database for the weather conditions in past years. The results will help you decide how hot, cold, wet, or windy it might be!

Date:

Astronomy

Mar. 19, 2013 Rise Set
Actual Time 7:41 AM EDT 7:48 PM EDT
Civil Twilight 7:16 AM EDT 8:13 PM EDT
Nautical Twilight 6:46 AM EDT 8:43 PM EDT
Astronomical Twilight 6:16 AM EDT 9:13 PM EDT
Moon 12:41 PM EDT (3/19) 2:24 AM EDT (3/19)
Length of Visible Light 12h 57m
Length of Day
12h 06m
Waxing Crescent, 49% of the Moon is Illuminated
Mar 19
Waxing Crescent
Mar 19
First Quarter
Mar 27
Full
Apr 3
Last Quarter
Apr 10
New

Hourly Weather History & Observations

Time (EDT) Temp. Dew Point Humidity Pressure Visibility Wind Dir Wind Speed Gust Speed Precip Events Conditions
12:11 AM 53.6 °F 51.8 °F 94% 29.87 in 10.0 mi West 5.8 mph - N/A   Overcast
12:37 AM 53.6 °F 51.8 °F 94% 29.88 in 10.0 mi SW 4.6 mph - N/A   Overcast
12:53 AM 54.0 °F 48.9 °F 83% 29.88 in 10.0 mi West 6.9 mph - N/A   Overcast
1:53 AM 51.1 °F 44.1 °F 77% 29.90 in 10.0 mi West 5.8 mph - N/A   Mostly Cloudy
2:02 AM 51.8 °F 44.6 °F 76% 29.90 in 10.0 mi West 5.8 mph - N/A   Mostly Cloudy
2:53 AM 50.0 °F 39.9 °F 68% 29.94 in 10.0 mi West 8.1 mph - N/A   Partly Cloudy
3:53 AM 46.9 °F 34.0 °F 61% 29.99 in 10.0 mi NNW 5.8 mph - N/A   Clear
4:53 AM 44.1 °F 28.0 °F 53% 30.03 in 10.0 mi Calm Calm - N/A   Clear
5:53 AM 37.9 °F 33.1 °F 83% 30.06 in 10.0 mi Calm Calm - N/A   Clear
6:53 AM 37.0 °F 32.0 °F 82% 30.07 in 10.0 mi Calm Calm - N/A   Clear
7:53 AM 37.0 °F 32.0 °F 82% 30.08 in 10.0 mi Calm Calm - N/A   Clear
8:53 AM 41.0 °F 35.1 °F 79% 30.09 in 10.0 mi Calm Calm - N/A   Clear
9:53 AM 45.0 °F 35.1 °F 68% 30.09 in 10.0 mi Calm Calm - N/A   Clear
10:53 AM 50.0 °F 33.1 °F 52% 30.10 in 10.0 mi Calm Calm - N/A   Clear
11:53 AM 53.1 °F 27.0 °F 37% 30.09 in 10.0 mi Variable 5.8 mph - N/A   Clear
12:53 PM 55.0 °F 23.0 °F 29% 30.10 in 10.0 mi West 9.2 mph 17.3 mph N/A   Clear
1:53 PM 57.0 °F 19.9 °F 24% 30.09 in 10.0 mi West 10.4 mph 19.6 mph N/A   Clear
2:53 PM 59.0 °F 17.1 °F 20% 30.08 in 10.0 mi West 11.5 mph 19.6 mph N/A   Clear
3:53 PM 59.0 °F 10.9 °F 15% 30.08 in 10.0 mi WNW 13.8 mph 20.7 mph N/A   Clear
4:53 PM 57.9 °F 6.1 °F 13% 30.11 in 10.0 mi West 11.5 mph 21.9 mph N/A   Clear
5:53 PM 55.9 °F 8.1 °F 15% 30.13 in 10.0 mi NW 11.5 mph 18.4 mph N/A   Clear
6:53 PM 55.0 °F 7.0 °F 15% 30.14 in 10.0 mi Variable 5.8 mph - N/A   Clear
7:53 PM 52.0 °F 7.0 °F 16% 30.15 in 10.0 mi NW 3.5 mph - N/A   Partly Cloudy
8:53 PM 48.9 °F 12.0 °F 23% 30.15 in 10.0 mi Calm Calm - N/A   Partly Cloudy
9:53 PM 48.9 °F 10.0 °F 21% 30.16 in 10.0 mi NNW 3.5 mph - N/A   Partly Cloudy
10:53 PM 46.9 °F 14.0 °F 27% 30.16 in 10.0 mi Calm Calm - N/A   Overcast
11:53 PM 46.9 °F 10.0 °F 22% 30.17 in 10.0 mi Variable 3.5 mph - N/A   Mostly Cloudy